Home > Weather > Whitby > Past weeks

Flag for Canada Past Weather in Whitby, Ontario, Canada — Yesterday and Last 2 Weeks

Now
70 °F

Partly cloudy.


Feels Like: 70 °F
Forecast: 69 / 85 °F
Wind: 3 mph from Southwest

Location: Toronto Buttonville

Current Time: Jun 27, 2016 at 7:26:27 AM

Latest Report: Jun 27, 2016 at 6:00 AM


Visibility: 7 mi

Pressure: 29.89 "Hg

Humidity: 94%

Dew Point: 68 °F

Location of WhitbyLocation

Past Weather in Whitby — Graph

°F

Whitby Temperature Yesterday

Maximum temperature yesterday: 88 °F (at 2:00 PM)
Minimum temperature yesterday: 61 °F (at 5:00 AM)
Average temperature yesterday: 76 °F

High & Low Weather Summary for the Past Weeks

 TemperatureHumidityPressure
High91 °F (Jun 20, 4:00 PM)94% (Jun 27, 1:00 AM)30.27 "Hg (Jun 27, 1:00 AM)
Low46 °F (Jun 14, 6:00 AM)24% (Jun 18, 1:00 PM)29.74 "Hg (Jun 20, 7:00 PM)
Average69 °F50%29.99 "Hg
* Reported Jun 12 6:00 AM — Jun 27 6:00 AM, Whitby, Weather by CustomWeather, © 2016

Note: Actual official high and low records may vary slightly from our data, if they occured in-between our weather recording intervals... More about our weather records

Advertising

Whitby Weather History for the Previous 24 Hours

Scroll right to see more
 ConditionsComfort  
Time TempWeatherWind HumidityBarometerVisibility
6:00 AM
Mon, Jun 27
70 °FPartly cloudy.3 mph94%29.89 "Hg7 mi
5:00 AM72 °FPartly cloudy.3 mph88%29.88 "Hg10 mi
4:00 AM72 °FPassing clouds.5 mph94%29.89 "Hg8 mi
3:00 AM72 °FPartly cloudy.5 mph94%29.90 "Hg8 mi
2:00 AM72 °FPassing clouds.2 mph94%29.90 "Hg8 mi
1:00 AM72 °FPassing clouds.2 mph94%29.90 "Hg8 mi
12:00 AM73 °FPassing clouds.No wind89%29.92 "Hg12 mi
11:00 PM
Sun, Jun 26
73 °FSprinkles. Overcast.5 mph89%29.93 "Hg10 mi
10:57 PM73 °FSprinkles. Overcast.3 mph89%29.93 "Hg10 mi
10:00 PM79 °FThunderstorms. Cloudy.6 mph65%29.92 "Hg11 mi
9:48 PM81 °FSprinkles. Mostly cloudy.9 mph62%29.91 "Hg11 mi
9:00 PM84 °FScattered showers. Mostly cloudy.8 mph48%29.90 "Hg14 mi
8:00 PM84 °FBroken clouds.13 mph48%29.91 "Hg13 mi
7:00 PM86 °FBroken clouds.15 mph46%29.91 "Hg15 mi
6:00 PM84 °FMore clouds than sun.14 mph48%29.94 "Hg12 mi
5:00 PM84 °FMore clouds than sun.16 mph51%29.95 "Hg12 mi
4:00 PM86 °FOvercast.18 mph49%29.96 "Hg15 mi
3:00 PM88 °FMore clouds than sun.22 mph43%29.98 "Hg15 mi
2:00 PM88 °FOvercast.15 mph46%30.01 "Hg15 mi
1:00 PM86 °FOvercast.16 mph49%30.03 "Hg15 mi
12:00 PM84 °FPartly sunny.12 mph48%30.05 "Hg15 mi
11:00 AM82 °FPartly sunny.8 mph51%30.06 "Hg15 mi
10:00 AM79 °FPartly sunny.12 mph61%30.07 "Hg15 mi
9:00 AM75 °FScattered clouds.7 mph65%30.08 "Hg15 mi
8:00 AM70 °FScattered clouds.3 mph60%30.08 "Hg15 mi
7:00 AM64 °FPassing clouds.No wind68%30.07 "Hg15 mi
Weather by CustomWeather, © 2016

See weather overviewHow to use our weather pages